| time (UTC) | temp F | wind direction | speed MPH | gust MPH | rain 1hr in | rain 24hr in | rain mn in | humidity % | barometer mb |
| 20260509005103 | 51 | 317 | 1.0 | 4.0 | 0.00 | 0.00 | 0.00 | 59 | 1011.3 |
| 20260509004102 | 52 | 301 | 2.0 | 5.0 | 0.00 | 0.00 | 0.00 | 55 | 1011.1 |
| 20260509003103 | 53 | 303 | 3.0 | 7.0 | 0.00 | 0.00 | 0.00 | 55 | 1011.0 |
| 20260509002102 | 53 | 303 | 2.0 | 7.0 | 0.00 | 0.00 | 0.00 | 53 | 1010.7 |
| 20260509001103 | 54 | 310 | 2.0 | 9.0 | 0.00 | 0.00 | 0.00 | 52 | 1010.5 |
| 20260509000103 | 54 | 297 | 4.0 | 10.0 | 0.00 | 0.00 | 0.00 | 52 | 1010.4 |
| 20260508235103 | 54 | 301 | 3.0 | 9.0 | 0.00 | 0.00 | 0.00 | 51 | 1010.2 |
| 20260508234103 | 55 | 315 | 7.0 | 11.0 | 0.00 | 0.00 | 0.00 | 52 | 1009.9 |
| 20260508233103 | 56 | 321 | 6.0 | 10.0 | 0.00 | 0.00 | 0.00 | 51 | 1009.8 |
| 20260508232103 | 56 | 330 | 3.0 | 12.0 | 0.00 | 0.00 | 0.00 | 52 | 1009.7 |
| 20260508231103 | 57 | 304 | 4.0 | 15.0 | 0.00 | 0.00 | 0.00 | 51 | 1009.6 |
| 20260508225102 | 57 | 312 | 7.0 | 16.0 | 0.00 | 0.00 | 0.00 | 50 | 1009.5 |
| 20260508224103 | 57 | 307 | 10.0 | 18.0 | 0.00 | 0.00 | 0.00 | 49 | 1009.4 |
| 20260508223102 | 58 | 301 | 7.0 | 16.0 | 0.00 | 0.00 | 0.00 | 51 | 1009.3 |
| 20260508222103 | 58 | 337 | 13.0 | 20.0 | 0.00 | 0.00 | 0.00 | 50 | 1009.3 |
| 20260508221103 | 58 | 287 | 6.0 | 19.0 | 0.00 | 0.00 | 0.00 | 50 | 1009.3 |
| 20260508215103 | 58 | 318 | 12.0 | 18.0 | 0.00 | 0.00 | 0.00 | 50 | 1009.2 |
| 20260508214102 | 58 | 297 | 11.0 | 20.0 | 0.00 | 0.00 | 0.00 | 50 | 1009.3 |
| 20260508213103 | 58 | 327 | 12.0 | 22.0 | 0.00 | 0.00 | 0.00 | 49 | 1009.2 |
| 20260508212102 | 59 | 311 | 12.0 | 20.0 | 0.00 | 0.00 | 0.00 | 49 | 1009.2 |
| 20260508211103 | 59 | 344 | 14.0 | 18.0 | 0.00 | 0.00 | 0.00 | 51 | 1008.9 |
| 20260508210103 | 59 | 318 | 10.0 | 17.0 | 0.00 | 0.00 | 0.00 | 51 | 1008.9 |
| 20260508205124 | 59 | 330 | 13.0 | 20.0 | 0.00 | 0.00 | 0.00 | 50 | 1009.0 |
| 20260508204103 | 59 | 292 | 10.0 | 18.0 | 0.00 | 0.00 | 0.00 | 51 | 1008.7 |
| 20260508203103 | 58 | 306 | 10.0 | 20.0 | 0.00 | 0.00 | 0.00 | 51 | 1008.7 |
| 20260508202102 | 58 | 289 | 7.0 | 14.0 | 0.00 | 0.00 | 0.00 | 51 | 1008.6 |
| 20260508201103 | 58 | 252 | 6.0 | 17.0 | 0.00 | 0.00 | 0.00 | 51 | 1008.4 |
| 20260508200103 | 58 | 265 | 9.0 | 21.0 | 0.00 | 0.00 | 0.00 | 50 | 1008.3 |
| 20260508195102 | 60 | 262 | 9.0 | 19.0 | 0.00 | 0.00 | 0.00 | 49 | 1008.3 |
| 20260508194124 | 59 | 284 | 9.0 | 18.0 | 0.00 | 0.00 | 0.00 | 46 | 1008.1 |
| 20260508193102 | 59 | 287 | 7.0 | 15.0 | 0.00 | 0.00 | 0.00 | 44 | 1008.0 |
| 20260508192103 | 59 | 287 | 7.0 | 17.0 | 0.00 | 0.00 | 0.00 | 41 | 1007.8 |
| 20260508191103 | 59 | 318 | 8.0 | 17.0 | 0.00 | 0.00 | 0.00 | 42 | 1007.8 |
| 20260508190124 | 60 | 307 | 4.0 | 13.0 | 0.00 | 0.00 | 0.00 | 42 | 1007.6 |
| 20260508185103 | 60 | 309 | 5.0 | 14.0 | 0.00 | 0.00 | 0.00 | 43 | 1007.6 |
| 20260508184103 | 60 | 344 | 10.0 | 18.0 | 0.00 | 0.00 | 0.00 | 42 | 1007.6 |
| 20260508183103 | 60 | 263 | 6.0 | 16.0 | 0.00 | 0.00 | 0.00 | 43 | 1007.8 |
| 20260508182102 | 61 | 288 | 7.0 | 15.0 | 0.00 | 0.00 | 0.00 | 41 | 1007.8 |
| 20260508181124 | 61 | 256 | 5.0 | 15.0 | 0.00 | 0.00 | 0.00 | 43 | 1007.9 |
| 20260508180104 | 61 | 270 | 9.0 | 16.0 | 0.00 | 0.00 | 0.00 | 41 | 1007.9 |
| 20260508175102 | 61 | 255 | 6.0 | 14.0 | 0.00 | 0.00 | 0.00 | 44 | 1007.9 |
| 20260508174103 | 61 | 295 | 8.0 | 19.0 | 0.00 | 0.00 | 0.00 | 42 | 1007.9 |
| 20260508173102 | 62 | 249 | 11.0 | 17.0 | 0.00 | 0.00 | 0.00 | 43 | 1008.0 |
| 20260508171102 | 61 | 274 | 5.0 | 12.0 | 0.00 | 0.00 | 0.00 | 45 | 1008.1 |
| 20260508165104 | 61 | 279 | 3.0 | 18.0 | 0.00 | 0.00 | 0.00 | 41 | 1008.3 |
| 20260508164102 | 60 | 254 | 4.0 | 14.0 | 0.00 | 0.00 | 0.00 | 46 | 1008.4 |
| 20260508163103 | 60 | 237 | 9.0 | 15.0 | 0.00 | 0.00 | 0.00 | 44 | 1008.4 |
| 20260508161103 | 59 | 245 | 8.0 | 18.0 | 0.00 | 0.00 | 0.00 | 43 | 1008.6 |
| 20260508155103 | 60 | 267 | 6.0 | 13.0 | 0.00 | 0.00 | 0.00 | 46 | 1008.9 |
| 20260508154103 | 59 | 328 | 8.0 | 14.0 | 0.00 | 0.00 | 0.00 | 45 | 1009.0 |
| 20260508153102 | 59 | 298 | 6.0 | 16.0 | 0.00 | 0.00 | 0.00 | 46 | 1009.2 |
| 20260508152124 | 59 | 258 | 7.0 | 16.0 | 0.00 | 0.00 | 0.00 | 44 | 1009.1 |
| 20260508151103 | 59 | 288 | 6.0 | 13.0 | 0.00 | 0.00 | 0.00 | 44 | 1009.1 |
| 20260508145103 | 58 | 274 | 6.0 | 12.0 | 0.00 | 0.00 | 0.00 | 44 | 1009.2 |
| 20260508144124 | 58 | 324 | 10.0 | 16.0 | 0.00 | 0.00 | 0.00 | 45 | 1009.3 |
| 20260508143123 | 57 | 317 | 9.0 | 14.0 | 0.00 | 0.00 | 0.00 | 45 | 1009.4 |
| 20260508142103 | 57 | 323 | 8.0 | 15.0 | 0.00 | 0.00 | 0.00 | 48 | 1009.4 |
| 20260508141102 | 56 | 305 | 5.0 | 14.0 | 0.00 | 0.00 | 0.00 | 47 | 1009.4 |
| 20260508135103 | 55 | 316 | 8.0 | 14.0 | 0.00 | 0.00 | 0.00 | 49 | 1009.7 |
| 20260508134102 | 55 | 323 | 9.0 | 16.0 | 0.00 | 0.00 | 0.00 | 49 | 1009.8 |
| 20260508133124 | 54 | 332 | 7.0 | 13.0 | 0.00 | 0.00 | 0.00 | 50 | 1009.8 |
| 20260508132103 | 54 | 286 | 5.0 | 12.0 | 0.00 | 0.00 | 0.00 | 52 | 1009.9 |
| 20260508131102 | 53 | 308 | 7.0 | 14.0 | 0.00 | 0.00 | 0.00 | 53 | 1009.9 |
| 20260508124103 | 51 | 331 | 2.0 | 9.0 | 0.00 | 0.00 | 0.00 | 55 | 1010.0 |
| 20260508123103 | 51 | 318 | 6.0 | 12.0 | 0.00 | 0.00 | 0.00 | 52 | 1010.0 |
| 20260508122103 | 51 | 316 | 6.0 | 13.0 | 0.00 | 0.00 | 0.00 | 53 | 1009.9 |
| 20260508121103 | 52 | 335 | 8.0 | 11.0 | 0.00 | 0.00 | 0.00 | 53 | 1009.8 |
| 20260508115102 | 52 | 338 | 7.0 | 10.0 | 0.00 | 0.00 | 0.00 | 56 | 1009.7 |
| 20260508114103 | 50 | 316 | 5.0 | 10.0 | 0.00 | 0.00 | 0.00 | 60 | 1009.7 |
| 20260508113103 | 48 | 315 | 4.0 | 9.0 | 0.00 | 0.00 | 0.00 | 62 | 1009.7 |
| 20260508112102 | 47 | 310 | 4.0 | 8.0 | 0.00 | 0.01 | 0.00 | 65 | 1009.8 |
| 20260508111103 | 46 | 310 | 4.0 | 9.0 | 0.00 | 0.02 | 0.00 | 68 | 1009.8 |
| 20260508105124 | 43 | 293 | 1.0 | 2.0 | 0.00 | 0.04 | 0.00 | 73 | 1009.7 |
| 20260508104124 | 42 | 316 | 0.0 | 4.0 | 0.00 | 0.04 | 0.00 | 73 | 1009.5 |
| 20260508103123 | 42 | 302 | 2.0 | 4.0 | 0.00 | 0.04 | 0.00 | 75 | 1009.4 |
| 20260508102103 | 42 | 312 | 2.0 | 5.0 | 0.00 | 0.05 | 0.00 | 77 | 1009.2 |
| 20260508101124 | 41 | 316 | 2.0 | 5.0 | 0.00 | 0.05 | 0.00 | 80 | 1009.1 |
| 20260508100123 | 41 | 319 | 3.0 | 4.0 | 0.00 | 0.06 | 0.00 | 81 | 1009.1 |
| 20260508095103 | 40 | 311 | 2.0 | 4.0 | 0.00 | 0.07 | 0.00 | 81 | 1009.1 |
| 20260508094124 | 40 | 308 | 2.0 | 3.0 | 0.00 | 0.08 | 0.00 | 80 | 1009.0 |
| 20260508093102 | 40 | 313 | 1.0 | 3.0 | 0.00 | 0.08 | 0.00 | 82 | 1008.8 |
| 20260508091102 | 40 | 311 | 1.0 | 4.0 | 0.00 | 0.09 | 0.00 | 77 | 1008.7 |
| 20260508090103 | 39 | 328 | 2.0 | 4.0 | 0.00 | 0.10 | 0.00 | 79 | 1008.8 |
| 20260508085102 | 39 | 315 | 3.0 | 6.0 | 0.00 | 0.11 | 0.00 | 82 | 1008.8 |
| 20260508084104 | 38 | 321 | 4.0 | 6.0 | 0.00 | 0.11 | 0.00 | 85 | 1008.7 |
| 20260508083102 | 38 | 314 | 3.0 | 5.0 | 0.00 | 0.11 | 0.00 | 85 | 1008.6 |
| 20260508081103 | 38 | 319 | 4.0 | 6.0 | 0.00 | 0.13 | 0.00 | 84 | 1008.2 |
| 20260508075102 | 39 | 316 | 2.0 | 3.0 | 0.00 | 0.21 | 0.00 | 80 | 1007.9 |
| 20260508073102 | 40 | 314 | 2.0 | 3.0 | 0.00 | 0.41 | 0.00 | 79 | 1007.7 |
| 20260508072102 | 40 | 312 | 1.0 | 3.0 | 0.00 | 0.44 | 0.00 | 77 | 1007.4 |
| 20260508071103 | 41 | 327 | 2.0 | 4.0 | 0.00 | 0.44 | 0.00 | 76 | 1007.4 |
| 20260508065103 | 43 | 313 | 3.0 | 5.0 | 0.00 | 0.44 | 0.00 | 70 | 1007.1 |
| 20260508064123 | 44 | 355 | 3.0 | 5.0 | 0.00 | 0.44 | 0.00 | 71 | 1007.0 |
| 20260508063103 | 45 | 334 | 3.0 | 5.0 | 0.00 | 0.44 | 0.00 | 69 | 1007.1 |
| 20260508062103 | 46 | 331 | 4.0 | 8.0 | 0.00 | 0.44 | 0.00 | 62 | 1007.1 |
| 20260508061147 | 47 | 320 | 3.0 | 9.0 | 0.00 | 0.44 | 0.00 | 60 | 1007.1 |
| 20260508060123 | 48 | 327 | 4.0 | 9.0 | 0.00 | 0.44 | 0.00 | 57 | 1007.0 |
| 20260508055103 | 48 | 336 | 4.0 | 8.0 | 0.00 | 0.44 | 0.00 | 56 | 1006.9 |
| 20260508054103 | 49 | 320 | 5.0 | 10.0 | 0.00 | 0.44 | 0.00 | 54 | 1007.0 |
| 20260508053102 | 49 | 311 | 5.0 | 10.0 | 0.00 | 0.44 | 0.00 | 54 | 1007.1 |
| 20260508052103 | 49 | 335 | 4.0 | 9.0 | 0.00 | 0.44 | 0.00 | 53 | 1007.0 |
| 20260508051123 | 50 | 318 | 5.0 | 10.0 | 0.00 | 0.44 | 0.00 | 54 | 1007.0 |
| 20260508050124 | 50 | 318 | 6.0 | 11.0 | 0.00 | 0.44 | 0.00 | 52 | 1007.1 |
| 20260508045124 | 50 | 335 | 4.0 | 12.0 | 0.00 | 0.44 | 0.00 | 52 | 1007.1 |
| 20260508044102 | 51 | 326 | 8.0 | 11.0 | 0.00 | 0.44 | 0.00 | 54 | 1007.2 |
| 20260508042102 | 51 | 337 | 6.0 | 10.0 | 0.00 | 0.44 | 0.00 | 52 | 1007.1 |
| 20260508041103 | 51 | 328 | 6.0 | 9.0 | 0.00 | 0.44 | 0.00 | 51 | 1007.2 |
| 20260508035103 | 51 | 323 | 7.0 | 12.0 | 0.00 | 0.44 | 0.44 | 52 | 1007.2 |
| 20260508034102 | 51 | 326 | 5.0 | 9.0 | 0.00 | 0.44 | 0.44 | 51 | 1007.3 |
| 20260508033102 | 51 | 313 | 2.0 | 9.0 | 0.00 | 0.44 | 0.44 | 51 | 1007.2 |
| 20260508032102 | 51 | 322 | 4.0 | 10.0 | 0.00 | 0.44 | 0.44 | 50 | 1007.2 |
| 20260508031103 | 51 | 314 | 3.0 | 10.0 | 0.00 | 0.44 | 0.44 | 51 | 1007.3 |
| 20260508025103 | 51 | 303 | 4.0 | 9.0 | 0.00 | 0.44 | 0.44 | 51 | 1007.4 |
| 20260508024103 | 51 | 303 | 5.0 | 9.0 | 0.00 | 0.44 | 0.44 | 51 | 1007.5 |
| 20260508023123 | 51 | 310 | 5.0 | 10.0 | 0.00 | 0.44 | 0.44 | 52 | 1007.3 |
| 20260508022103 | 51 | 312 | 4.0 | 9.0 | 0.00 | 0.44 | 0.44 | 51 | 1007.4 |
| 20260508021104 | 52 | 303 | 4.0 | 9.0 | 0.00 | 0.44 | 0.44 | 50 | 1007.5 |
| 20260508015104 | 52 | 311 | 2.0 | 5.0 | 0.00 | 0.44 | 0.44 | 49 | 1007.5 |
| 20260508014102 | 53 | 312 | 2.0 | 6.0 | 0.00 | 0.44 | 0.44 | 48 | 1007.6 |
| 20260508013103 | 54 | 304 | 4.0 | 9.0 | 0.00 | 0.44 | 0.44 | 46 | 1007.4 |
| 20260508012102 | 54 | 306 | 4.0 | 11.0 | 0.00 | 0.44 | 0.44 | 46 | 1007.3 |
| 20260508011103 | 54 | 303 | 5.0 | 10.0 | 0.00 | 0.44 | 0.44 | 46 | 1007.2 |